TimeWET,TemperatureF,Dew PointF,Humidity,Sea Level PressureIn,VisibilityMPH,Wind Direction,Wind SpeedMPH,Gust SpeedMPH,PrecipitationIn,Events,Conditions,WindDirDegrees,DateUTC
12:00 AM,55.4,44.6,67,29.98,6.2,ENE,4.6,-,N/A,,Mostly Cloudy,60,2013-03-15 00:00:00
1:00 AM,55.4,46.4,72,29.98,6.2,East,5.8,-,N/A,,Mostly Cloudy,90,2013-03-15 01:00:00
1:30 AM,53.6,44.6,72,29.98,6.2,East,4.6,-,N/A,,Mostly Cloudy,80,2013-03-15 01:30:00
2:00 AM,53.6,44.6,72,29.98,6.2,East,5.8,-,N/A,,Mostly Cloudy,90,2013-03-15 02:00:00
2:30 AM,53.6,44.6,72,29.95,6.2,East,8.1,-,N/A,,Mostly Cloudy,90,2013-03-15 02:30:00
3:00 AM,51,46,77,29.97,6,East,5.8,,,,,80,2013-03-15 03:00:00
3:00 AM,51.8,46.4,82,29.95,6.2,East,5.8,-,N/A,,Unknown,80,2013-03-15 03:00:00
3:30 AM,50.0,46.4,87,29.95,6.2,East,5.8,-,N/A,,Mostly Cloudy,80,2013-03-15 03:30:00
4:00 AM,50.0,46.4,87,29.92,6.2,ENE,6.9,-,N/A,,Mostly Cloudy,70,2013-03-15 04:00:00
4:30 AM,50.0,46.4,87,29.92,6.2,East,6.9,-,N/A,,Mostly Cloudy,80,2013-03-15 04:30:00
5:00 AM,50.0,46.4,87,29.95,6.2,East,5.8,-,N/A,,Mostly Cloudy,80,2013-03-15 05:00:00
5:30 AM,50.0,46.4,87,29.95,6.2,East,5.8,-,N/A,,Mostly Cloudy,100,2013-03-15 05:30:00
6:00 AM,49,46,87,29.98,6,ESE,3.5,,,,Scattered Clouds,110,2013-03-15 06:00:00
6:00 AM,50.0,46.4,87,29.95,6.2,East,3.5,-,N/A,,Mostly Cloudy,100,2013-03-15 06:00:00
6:30 AM,48.2,46.4,93,29.98,6.2,ESE,1.2,-,N/A,,Mostly Cloudy,120,2013-03-15 06:30:00
7:00 AM,50.0,48.2,94,29.98,6.2,Variable,1.2,-,N/A,,Mostly Cloudy,0,2013-03-15 07:00:00
7:30 AM,51.8,48.2,88,29.98,6.2,Calm,Calm,-,N/A,,Mostly Cloudy,0,2013-03-15 07:30:00
8:00 AM,57.2,50.0,77,29.98,5.0,Calm,Calm,-,N/A,,Unknown,0,2013-03-15 08:00:00
8:30 AM,59.0,48.2,67,29.98,5.0,Calm,Calm,-,N/A,,Unknown,0,2013-03-15 08:30:00
9:00 AM,61,49,54,29.97,5,East,4.6,,,,Clear,80,2013-03-15 09:00:00
9:00 AM,60.8,50.0,68,30.01,5.0,East,4.6,-,N/A,,Unknown,80,2013-03-15 09:00:00
9:30 AM,62.6,50.0,63,30.01,5.0,East,4.6,-,N/A,,Unknown,100,2013-03-15 09:30:00
10:00 AM,64.4,50.0,59,30.01,-9999.0,ESE,4.6,-,N/A,,Clear,110,2013-03-15 10:00:00
10:30 AM,68.0,50.0,52,30.01,-9999.0,East,4.6,-,N/A,,Clear,100,2013-03-15 10:30:00
11:00 AM,69.8,50.0,49,29.98,-9999.0,ESE,3.5,-,N/A,,Clear,110,2013-03-15 11:00:00
11:30 AM,71.6,51.8,50,29.98,-9999.0,ESE,3.5,-,N/A,,Clear,110,2013-03-15 11:30:00
12:00 PM,74,50,32,29.91,6,SW,1.2,,,,Clear,230,2013-03-15 12:00:00
12:00 PM,73.4,51.8,47,29.98,-9999.0,Variable,1.2,-,N/A,,Clear,0,2013-03-15 12:00:00
12:30 PM,77.0,50.0,39,29.95,-9999.0,NNW,3.5,-,N/A,,Clear,340,2013-03-15 12:30:00
1:00 PM,77.0,50.0,39,29.95,-9999.0,NW,3.5,-,N/A,,Clear,320,2013-03-15 13:00:00
1:30 PM,78.8,46.4,32,29.95,6.2,North,3.5,-,N/A,,Mostly Cloudy,350,2013-03-15 13:30:00
2:00 PM,78.8,42.8,28,29.95,6.2,North,3.5,-,N/A,,Mostly Cloudy,350,2013-03-15 14:00:00
2:30 PM,78.8,44.6,30,29.92,6.2,NNW,4.6,-,N/A,,Mostly Cloudy,330,2013-03-15 14:30:00
3:00 PM,80,40,15,29.85,6,WNW,5.8,,,,Scattered Clouds,290,2013-03-15 15:00:00
3:00 PM,80.6,41.0,24,29.92,6.2,WNW,5.8,-,N/A,,Mostly Cloudy,290,2013-03-15 15:00:00
3:30 PM,80.6,35.6,20,29.95,6.2,West,5.8,-,N/A,,Mostly Cloudy,280,2013-03-15 15:30:00
4:00 PM,80.6,35.6,20,29.92,6.2,WSW,3.5,-,N/A,,Mostly Cloudy,250,2013-03-15 16:00:00
4:30 PM,80.6,33.8,18,29.95,6.2,West,5.8,-,N/A,,Mostly Cloudy,270,2013-03-15 16:30:00
5:00 PM,78.8,33.8,20,29.95,6.2,West,8.1,-,N/A,,Mostly Cloudy,280,2013-03-15 17:00:00
5:30 PM,77.0,37.4,24,29.92,6.2,West,6.9,-,N/A,,Mostly Cloudy,270,2013-03-15 17:30:00
6:00 PM,75,36,14,29.88,6,West,6.9,,,,Scattered Clouds,280,2013-03-15 18:00:00
6:00 PM,75.2,39.2,27,29.95,6.2,West,6.9,-,N/A,,Mostly Cloudy,280,2013-03-15 18:00:00
6:30 PM,73.4,33.8,23,29.95,6.2,West,6.9,-,N/A,,Mostly Cloudy,280,2013-03-15 18:30:00
7:00 PM,69.8,35.6,28,29.95,6.2,West,3.5,-,N/A,,Mostly Cloudy,270,2013-03-15 19:00:00
7:30 PM,66.2,41.0,40,29.95,6.2,WSW,3.5,-,N/A,,Mostly Cloudy,240,2013-03-15 19:30:00
8:00 PM,66.2,39.2,37,29.95,-9999.0,WSW,3.5,-,N/A,,Clear,240,2013-03-15 20:00:00
8:30 PM,64.4,37.4,37,29.95,-9999.0,WSW,4.6,-,N/A,,Clear,240,2013-03-15 20:30:00
9:00 PM,65,37,25,29.94,6,SW,3.5,,,,Clear,230,2013-03-15 21:00:00
9:00 PM,66.2,37.4,35,29.98,-9999.0,SW,4.6,-,N/A,,Clear,230,2013-03-15 21:00:00
9:30 PM,62.6,39.2,42,29.98,-9999.0,SSW,3.5,-,N/A,,Clear,200,2013-03-15 21:30:00
10:00 PM,64.4,37.4,37,29.98,-9999.0,SSW,4.6,-,N/A,,Clear,210,2013-03-15 22:00:00
10:30 PM,66.2,39.2,37,29.98,-9999.0,SW,6.9,-,N/A,,Clear,220,2013-03-15 22:30:00
11:00 PM,64.4,42.8,45,29.98,-9999.0,SSW,8.1,-,N/A,,Clear,200,2013-03-15 23:00:00
11:30 PM,62.6,42.8,48,29.98,-9999.0,Variable,2.3,-,N/A,,Clear,0,2013-03-15 23:30:00